FENGYUN 1C DEB

Satellite information

Favourite Embed

Satellite Type and Status

DEBRISIN ORBIT

Key statistics

Satellite FENGYUN 1C DEB at a glance.

Uptime

9615

Days in orbit

Revolutions

≈ 14.2

Per day

Orbit

SSO

Sun Synchronous Orbit

Inclination

98.9

Latest

Satellite identification and parameters

Extended collection of information and parameters for FENGYUN 1C DEB.

Object identification

Identified? True

Debris? True

Object name: FENGYUN 1C DEB

International designator: 1999-025AAA

Object number (NORAD): 30313

Object ID (CCSDS): 30313

Country: PEOPLES REPUBLIC OF CHINA (PRC)

Current information (Y/N): Y

RCS size: SMALL

Orbital parameters

Period: 101.107 minutes

Inclination: 98.8783 deg

SMA: 7189.231 km

Apoapsis: 852.888 km

Periapsis: 769.303 km

RAAN: 331.2745 deg

Eccentricy: 0.00581324

Argument of periapsis: 265.3406 deg

Mean anomaly: 122.1565 deg

Mean motion: 14.24226738 rev/day

Mean motion (dot): 0.00008342 rev/day2

B* drag term: 0.0035704925 1/REarth

Two-line elements (TLE)

Creation date: Sept. 3, 2025, 10:15 a.m.

Reference frame: TEME

Reference center: EARTH

Epoch: Sept. 3, 2025, 5:01 a.m. UTC

TLE line 0: 0 FENGYUN 1C DEB

TLE line 1: 1 30313U 99025AAA 25246.20957527 .00008342 00000-0 35705-2 0 9990

TLE line 2: 2 30313 98.8783 331.2745 0058132 265.3406 122.1565 14.24226738956589

Live tracking on map

Real-time ground track for satellite FENGYUN 1C DEB.

In-orbit conjunctions

A list of the most updated potential collisions computed for object FENGYUN 1C DEB.

Target Orbit TCA Probability of collision Miss distance Type
DELTA 1 DEB SSO 2025-01-23 22:22:00 0.000105638 98.0 (m) DEBRIS
PICOSAT 9 LEO 2024-12-12 09:18:58 0.0001577861 242.0 (m) PAYLOAD
CZ-6A DEB LEO 2024-12-11 03:37:58 0.0001767501 957.0 (m) DEBRIS

Associated space launch

Chinese polar orbiting meteorological satellite

FENGYUN 1C DEB was lifted into orbit during the mission ‘Long March 4B | Feng Yun 1C’, on board a Long March 4B space rocket.

The launch took place on May 10, 1999, 1:33 a.m. from Launch Complex 7.

For more information about the launch, click the button.

Launch to space Long March 4B | Feng Yun 1C
Long March 4B | Feng Yun 1C

Agency: N/A

Status: Launch Successful

Launch date: May 10, 1999, 1:33 a.m. UTC

Rocket: Long March 4B

Launch pad: Launch Complex 7

Location: Taiyuan Satellite Launch Center, People's Republic of China

...

Latest news about this satellite

There are no fresh news available about this satellite. Check back as we update our databases every day.


Newsletter sign-up

Weekly statistics, charts and insights to help you stay on top of the space industry.